This demonstration page uses our WeatherBlox Daily Observations layout. Learn more.

Hourly Observations for May 9, 2016

Temp ( °F °C ) Dew Point ( °F °C ) Humidity (%) Winds ( mph kmh ) Pressure ( in mb ) Visibility ( mi km ) Precip ( " mm )
12:15 am 00:15 Clear 50 10 41 5 71 71 SW 5 7 30.03 1017 10 16.0934 0 0
12:35 am 00:35 Clear 50 10 43 6 76 76 SW 3 6 30.03 1017 10 16.0934 0 0
12:55 am 00:55 Clear 52 11 41 5 67 67 Calm 30.03 1017 10 16.0934 0 0
1:15 am 01:15 Clear 50 10 41 5 71 71 SW 3 6 30.03 1017 10 16.0934 0 0
1:35 am 01:35 Clear 46 8 43 6 87 87 WSW 3 6 30.06 1018 10 16.0934 0 0
1:55 am 01:55 Clear 46 8 43 6 87 87 Calm 30.06 1018 10 16.0934 0 0
2:15 am 02:15 Clear 46 8 43 6 87 87 WSW 5 7 30.06 1018 10 16.0934 0 0
2:35 am 02:35 Clear 48 9 41 5 76 76 WSW 5 7 30.06 1018 10 16.0934 0 0
2:55 am 02:55 Clear 45 7 43 6 93 93 WSW 5 7 30.06 1018 10 16.0934 0 0
3:15 am 03:15 Clear 46 8 43 6 87 87 WSW 6 9 30.06 1018 10 16.0934 0 0
3:35 am 03:35 Clear 46 8 41 5 82 82 W 6 9 30.06 1018 10 16.0934 0 0
3:55 am 03:55 Clear 50 10 39 4 67 67 W 7 11 30.03 1017 10 16.0934 0 0
4:15 am 04:15 Clear 48 9 39 4 71 71 W 5 7 30.06 1018 10 16.0934 0 0
4:35 am 04:35 Clear 48 9 39 4 71 71 WSW 3 6 30.06 1018 10 16.0934 0 0
4:55 am 04:55 Clear 50 10 39 4 67 67 Calm 30.03 1017 10 16.0934 0 0
5:15 am 05:15 Partly Cloudy 46 8 41 5 82 82 Calm 30.09 1019 10 16.0934 0 0
5:35 am 05:35 Partly Cloudy 48 9 41 5 76 76 Calm 30.06 1018 10 16.0934 0 0
5:55 am 05:55 Partly Cloudy 48 9 41 5 76 76 Calm 30.09 1019 10 16.0934 0 0
6:15 am 06:15 Sunny 46 8 41 5 82 82 WSW 3 6 30.09 1019 10 16.0934 0 0
6:35 am 06:35 Sunny 46 8 43 6 87 87 SSW 5 7 30.09 1019 10 16.0934 0 0
6:55 am 06:55 Partly Cloudy 48 9 43 6 82 82 Calm 30.09 1019 10 16.0934 0 0
7:15 am 07:15 Partly Cloudy 50 10 43 6 76 76 Calm 30.09 1019 10 16.0934 0 0
7:35 am 07:35 Sunny 52 11 43 6 72 72 Calm 30.06 1018 10 16.0934 0 0
7:55 am 07:55 Sunny 52 11 45 7 77 77 S 3 6 30.09 1019 10 16.0934 0 0
8:15 am 08:15 Sunny 54 12 45 7 72 72 Calm 30.09 1019 10 16.0934 0 0
8:35 am 08:35 Mostly Cloudy 55 13 46 8 72 72 Calm 30.09 1019 10 16.0934 0 0
8:55 am 08:55 Cloudy 57 14 46 8 67 67 Calm 30.09 1019 10 16.0934 0 0
9:15 am 09:15 Cloudy 55 13 46 8 72 72 Calm 30.09 1019 10 16.0934 0 0
9:35 am 09:35 Cloudy 55 13 50 10 82 82 Calm 30.09 1019 10 16.0934 0 0
9:55 am 09:55 Cloudy with Light Rain 57 14 50 10 77 77 SW 5 7 30.09 1019 10 16.0934 0 0
10:15 am 10:15 Cloudy with Light Rain 59 15 46 8 63 63 WSW 7 11 30.12 1020 10 16.0934 0 0
10:35 am 10:35 Cloudy with Light Rain 59 15 46 8 63 63 WSW 8 13 30.12 1020 10 16.0934 0 0
10:55 am 10:55 Cloudy with Light Rain 59 15 48 9 68 68 SW 9 15 30.12 1020 10 16.0934 0 0
11:15 am 11:15 Cloudy with Light Rain 59 15 50 10 72 72 WSW 12 19 30.15 1021 10 16.0934 0 0
11:35 am 11:35 Cloudy with Light Rain 55 13 52 11 88 88 SW 7 11 30.15 1021 10 16.0934 0 0
11:55 am 11:55 Cloudy with Light Rain 54 12 52 11 94 94 SW 10 17 30.15 1021 10 16.0934 0 0
12:15 pm 12:15 Cloudy with Light Rain 55 13 54 12 94 94 SSW 6 9 30.15 1021 10 16.0934 0 0
12:35 pm 12:35 Cloudy with Light Drizzle 55 13 54 12 94 94 SW 7 11 30.15 1021 10 16.0934 0 0
12:55 pm 12:55 Cloudy with Light Drizzle 55 13 54 12 94 94 SSW 3 6 30.15 1021 10 16.0934 0 0
1:15 pm 13:15 Cloudy with Light Rain 55 13 55 13 100 100 SW 5 7 30.15 1021 10 16.0934 0 0
1:35 pm 13:35 Cloudy with Light Rain 55 13 55 13 100 100 SSW 3 6 30.12 1020 10 16.0934 0 0
1:55 pm 13:55 Cloudy with Light Rain 55 13 55 13 100 100 WSW 3 6 30.12 1020 10 16.0934 0 0
2:15 pm 14:15 Cloudy with Light Rain 55 13 55 13 100 100 WSW 3 6 30.12 1020 10 16.0934 0 0
2:35 pm 14:35 Cloudy with Light Drizzle 57 14 57 14 100 100 W 5 7 30.12 1020 10 16.0934 0 0
2:55 pm 14:55 Mostly Cloudy 59 15 57 14 94 94 WNW 6 9 30.09 1019 10 16.0934 0 0
3:15 pm 15:15 Sunny 59 15 57 14 94 94 Calm 30.09 1019 10 16.0934 0 0
3:35 pm 15:35 Partly Cloudy 61 16 57 14 88 88 WNW 7 11 30.09 1019 10 16.0934 0 0
3:55 pm 15:55 Mostly Cloudy 61 16 55 13 83 83 W 3 6 30.09 1019 10 16.0934 0 0
4:15 pm 16:15 Cloudy 61 16 59 15 94 94 S 6 9 30.09 1019 10 16.0934 0 0
4:35 pm 16:35 Cloudy 61 16 59 15 94 94 SSW 7 11 30.09 1019 10 16.0934 0 0
4:55 pm 16:55 Mostly Cloudy 63 17 59 15 88 88 Calm 30.06 1018 10 16.0934 0 0
5:15 pm 17:15 Mostly Cloudy 63 17 57 14 83 83 WSW 3 6 30.09 1019 10 16.0934 0 0
5:35 pm 17:35 Partly Cloudy 64 18 57 14 78 78 WSW 3 6 30.06 1018 10 16.0934 0 0
5:55 pm 17:55 Partly Cloudy 63 17 59 15 88 88 SW 6 9 30.06 1018 10 16.0934 0 0
6:15 pm 18:15 Partly Cloudy 63 17 59 15 88 88 SSW 7 11 30.06 1018 10 16.0934 0 0
6:35 pm 18:35 Mostly Cloudy 64 18 59 15 83 83 WSW 5 7 30.09 1019 10 16.0934 0 0
6:55 pm 18:55 Cloudy 63 17 59 15 88 88 Calm 30.09 1019 10 16.0934 0 0
7:15 pm 19:15 Cloudy 63 17 59 15 88 88 Calm 30.09 1019 10 16.0934 0 0
7:35 pm 19:35 Cloudy 63 17 59 15 88 88 Calm 30.09 1019 10 16.0934 0 0
7:55 pm 19:55 Cloudy 63 17 59 15 88 88 Calm 30.09 1019 10 16.0934 0 0
8:15 pm 20:15 Cloudy 63 17 55 13 77 77 Calm 30.09 1019 10 16.0934 0 0
8:35 pm 20:35 Cloudy 63 17 59 15 88 88 Calm 30.09 1019 10 16.0934 0 0
8:55 pm 20:55 Cloudy 61 16 57 14 88 88 Calm 30.12 1020 10 16.0934 0 0
9:15 pm 21:15 Cloudy 61 16 59 15 94 94 S 3 6 30.12 1020 10 16.0934 0 0
9:35 pm 21:35 Cloudy 61 16 59 15 94 94 SSW 6 9 30.12 1020 10 16.0934 0 0
9:55 pm 21:55 Cloudy 61 16 59 15 94 94 Calm 30.12 1020 10 16.0934 0 0
10:15 pm 22:15 Cloudy with Light Rain 61 16 59 15 94 94 Calm 30.12 1020 10 16.0934 0 0
10:35 pm 22:35 Cloudy 59 15 59 15 100 100 Calm 30.12 1020 10 16.0934 0 0
10:55 pm 22:55 Cloudy 59 15 59 15 100 100 Calm 30.12 1020 10 16.0934 0 0
11:15 pm 23:15 Cloudy 59 15 59 15 100 100 Calm 30.12 1020 10 16.0934 0 0
11:35 pm 23:35 Cloudy 59 15 59 15 100 100 Calm 30.12 1020 10 16.0934 0 0
11:55 pm 23:55 Cloudy 59 15 59 15 100 100 SW 3 6 30.12 1020 10 16.0934 0 0

Powered by AerisWeather